Previsão horária em Barlad

Hoje, 24 Outubro, Sábado

Tempo Temperatura Precipitação Vento Pressão Humidade
00:00 +13°C° 0 mm 0 m/s 750 mmHg 49%
01:00 +13°C° 0 mm 0 m/s 750 mmHg 51%
02:00 +12°C° 0 mm 0 m/s 749 mmHg 52%
03:00 +12°C° 0 mm 0 m/s 749 mmHg 52%
04:00 +12°C° 0 mm 0 m/s 749 mmHg 52%
05:00 +13°C° 0 mm 1 m/s 749 mmHg 52%
06:00 +14°C° 0 mm 1 m/s 749 mmHg 52%
07:00 +14°C° 0 mm 1 m/s 749 mmHg 51%
08:00 +15°C° 0 mm 1 m/s 749 mmHg 51%
09:00 +16°C° 0 mm 1 m/s 749 mmHg 47%
10:00 +19°C° 0 mm 1 m/s 749 mmHg 43%
11:00 +20°C° 0 mm 1 m/s 749 mmHg 39%
12:00 +20°C° 0 mm 1 m/s 749 mmHg 40%
13:00 +21°C° 0 mm 1 m/s 749 mmHg 41%
14:00 +21°C° 0 mm 1 m/s 749 mmHg 43%
15:00 +20°C° 0.1 mm 1 m/s 749 mmHg 50%
16:00 +19°C° 0.1 mm 1 m/s 749 mmHg 58%
17:00 +18°C° 0.1 mm 2 m/s 749 mmHg 66%
18:00 +18°C° 0 mm 1 m/s 749 mmHg 67%
19:00 +18°C° 0 mm 1 m/s 749 mmHg 68%
20:00 +18°C° 0 mm 1 m/s 750 mmHg 69%
21:00 +18°C° 0 mm 1 m/s 750 mmHg 70%
22:00 +18°C° 0 mm 1 m/s 750 mmHg 71%
23:00 +16°C° 0 mm 2 m/s 750 mmHg 72%

Amanhã, 25 Outubro, Domingo

Tempo Temperatura Precipitação Vento Pressão Humidade
00:00 +16°C° 0 mm 2 m/s 750 mmHg 71%
01:00 +16°C° 0 mm 3 m/s 751 mmHg 70%
02:00 +14°C° 0 mm 3 m/s 751 mmHg 69%
03:00 +14°C° 0 mm 3 m/s 751 mmHg 71%
04:00 +14°C° 0 mm 3 m/s 751 mmHg 74%
05:00 +15°C° 0 mm 2 m/s 750 mmHg 76%
06:00 +15°C° 0 mm 2 m/s 750 mmHg 76%
07:00 +14°C° 0 mm 3 m/s 751 mmHg 77%
08:00 +14°C° 0 mm 3 m/s 751 mmHg 78%
09:00 +16°C° 0 mm 3 m/s 751 mmHg 73%
10:00 +17°C° 0 mm 3 m/s 750 mmHg 68%
11:00 +18°C° 0 mm 3 m/s 750 mmHg 63%
12:00 +19°C° 0 mm 3 m/s 750 mmHg 60%
13:00 +20°C° 0 mm 3 m/s 750 mmHg 56%
14:00 +20°C° 0 mm 3 m/s 750 mmHg 53%
15:00 +20°C° 0 mm 3 m/s 750 mmHg 56%
16:00 +19°C° 0 mm 3 m/s 749 mmHg 58%
17:00 +18°C° 0 mm 2 m/s 749 mmHg 61%
18:00 +18°C° 0 mm 2 m/s 749 mmHg 64%
19:00 +17°C° 0 mm 2 m/s 749 mmHg 66%
20:00 +16°C° 0 mm 2 m/s 750 mmHg 69%
21:00 +16°C° 0 mm 2 m/s 749 mmHg 70%
22:00 +16°C° 0 mm 2 m/s 749 mmHg 72%
23:00 +15°C° 0 mm 2 m/s 749 mmHg 74%

Depois de amanhã, 26 Outubro, Segunda-feira

Tempo Temperatura Precipitação Vento Pressão Humidade
00:00 +15°C° 0 mm 2 m/s 749 mmHg 75%
01:00 +15°C° 0 mm 2 m/s 749 mmHg 76%
02:00 +15°C° 0 mm 2 m/s 749 mmHg 77%
03:00 +15°C° 0 mm 2 m/s 749 mmHg 78%
04:00 +15°C° 0 mm 2 m/s 749 mmHg 79%
05:00 +15°C° 0 mm 2 m/s 749 mmHg 80%
06:00 +15°C° 0.1 mm 2 m/s 749 mmHg 80%
07:00 +15°C° 0.1 mm 2 m/s 749 mmHg 80%
08:00 +15°C° 0.1 mm 2 m/s 749 mmHg 81%
09:00 +16°C° 0.7 mm 2 m/s 749 mmHg 80%
10:00 +17°C° 0.7 mm 2 m/s 749 mmHg 79%
11:00 +17°C° 0.7 mm 2 m/s 749 mmHg 78%
12:00 +18°C° 0.6 mm 2 m/s 748 mmHg 76%
13:00 +19°C° 0.6 mm 2 m/s 748 mmHg 74%
14:00 +19°C° 0.6 mm 2 m/s 748 mmHg 72%
15:00 +19°C° 0.7 mm 2 m/s 748 mmHg 75%
16:00 +19°C° 0.7 mm 1 m/s 748 mmHg 78%
17:00 +18°C° 0.7 mm 1 m/s 748 mmHg 81%
18:00 +18°C° 0.2 mm 1 m/s 748 mmHg 83%
19:00 +16°C° 0.2 mm 1 m/s 748 mmHg 85%
20:00 +16°C° 0.2 mm 1 m/s 749 mmHg 88%
21:00 +15°C° 0 mm 1 m/s 749 mmHg 88%
22:00 +15°C° 0 mm 1 m/s 749 mmHg 89%
23:00 +15°C° 0 mm 1 m/s 749 mmHg 90%

, 27 Outubro, Terça-feira

Tempo Temperatura Precipitação Vento Pressão Humidade
00:00 +14°C° 0 mm 1 m/s 749 mmHg 90%
01:00 +14°C° 0 mm 1 m/s 749 mmHg 91%
02:00 +14°C° 0 mm 1 m/s 749 mmHg 91%
03:00 +14°C° 0 mm 1 m/s 749 mmHg 92%
04:00 +14°C° 0 mm 1 m/s 749 mmHg 92%
05:00 +13°C° 0 mm 1 m/s 749 mmHg 92%
06:00 +14°C° 0 mm 1 m/s 749 mmHg 92%
07:00 +14°C° 0 mm 1 m/s 749 mmHg 91%
08:00 +14°C° 0 mm 1 m/s 750 mmHg 90%
09:00 +16°C° 0 mm 1 m/s 750 mmHg 85%
10:00 +18°C° 0 mm 1 m/s 750 mmHg 79%
11:00 +19°C° 0 mm 1 m/s 750 mmHg 74%
12:00 +20°C° 0 mm 1 m/s 750 mmHg 69%
13:00 +20°C° 0 mm 2 m/s 749 mmHg 65%
14:00 +20°C° 0 mm 2 m/s 749 mmHg 61%
15:00 +21°C° 0 mm 1 m/s 749 mmHg 64%
16:00 +20°C° 0 mm 1 m/s 749 mmHg 67%
17:00 +19°C° 0 mm 1 m/s 749 mmHg 70%
18:00 +18°C° 0 mm 1 m/s 749 mmHg 72%
19:00 +16°C° 0 mm 0 m/s 749 mmHg 74%
20:00 +15°C° 0 mm 0 m/s 749 mmHg 77%
21:00 +15°C° 0 mm 0 m/s 749 mmHg 78%
22:00 +15°C° 0 mm 0 m/s 750 mmHg 79%
23:00 +14°C° 0 mm 0 m/s 750 mmHg 81%

27 Outubro, Terça-feira

Tempo Temperatura Precipitação Vento Pressão Humidade
00:00 +14°C° 0 mm 1 m/s 749 mmHg 90%
01:00 +14°C° 0 mm 1 m/s 749 mmHg 91%
02:00 +14°C° 0 mm 1 m/s 749 mmHg 91%
03:00 +14°C° 0 mm 1 m/s 749 mmHg 92%
04:00 +14°C° 0 mm 1 m/s 749 mmHg 92%
05:00 +13°C° 0 mm 1 m/s 749 mmHg 92%
06:00 +14°C° 0 mm 1 m/s 749 mmHg 92%
07:00 +14°C° 0 mm 1 m/s 749 mmHg 91%
08:00 +14°C° 0 mm 1 m/s 750 mmHg 90%
09:00 +16°C° 0 mm 1 m/s 750 mmHg 85%
10:00 +18°C° 0 mm 1 m/s 750 mmHg 79%
11:00 +19°C° 0 mm 1 m/s 750 mmHg 74%
12:00 +20°C° 0 mm 1 m/s 750 mmHg 69%
13:00 +20°C° 0 mm 2 m/s 749 mmHg 65%
14:00 +20°C° 0 mm 2 m/s 749 mmHg 61%
15:00 +21°C° 0 mm 1 m/s 749 mmHg 64%
16:00 +20°C° 0 mm 1 m/s 749 mmHg 67%
17:00 +19°C° 0 mm 1 m/s 749 mmHg 70%
18:00 +18°C° 0 mm 1 m/s 749 mmHg 72%
19:00 +16°C° 0 mm 0 m/s 749 mmHg 74%
20:00 +15°C° 0 mm 0 m/s 749 mmHg 77%
21:00 +15°C° 0 mm 0 m/s 749 mmHg 78%
22:00 +15°C° 0 mm 0 m/s 750 mmHg 79%
23:00 +14°C° 0 mm 0 m/s 750 mmHg 81%

28 Outubro, Quarta-feira

Tempo Temperatura Precipitação Vento Pressão Humidade
00:00 +14°C° 0 mm 0 m/s 750 mmHg 82%
01:00 +14°C° 0 mm 0 m/s 750 mmHg 83%
02:00 +14°C° 0 mm 1 m/s 749 mmHg 85%
03:00 +14°C° 0 mm 1 m/s 750 mmHg 86%
04:00 +13°C° 0 mm 1 m/s 750 mmHg 88%
05:00 +13°C° 0 mm 1 m/s 750 mmHg 89%
06:00 +13°C° 0 mm 1 m/s 750 mmHg 89%
07:00 +14°C° 0 mm 1 m/s 750 mmHg 90%
08:00 +14°C° 0 mm 1 m/s 750 mmHg 90%
09:00 +15°C° 0 mm 1 m/s 750 mmHg 86%
10:00 +16°C° 0 mm 2 m/s 750 mmHg 82%
11:00 +18°C° 0 mm 2 m/s 750 mmHg 77%
12:00 +18°C° 0 mm 2 m/s 750 mmHg 74%
13:00 +19°C° 0 mm 2 m/s 750 mmHg 72%
14:00 +19°C° 0 mm 2 m/s 750 mmHg 69%
15:00 +19°C° 0.1 mm 2 m/s 750 mmHg 72%
16:00 +18°C° 0.1 mm 2 m/s 750 mmHg 76%
17:00 +17°C° 0.1 mm 3 m/s 750 mmHg 79%
18:00 +17°C° 0 mm 3 m/s 750 mmHg 83%
19:00 +16°C° 0 mm 3 m/s 750 mmHg 87%
20:00 +14°C° 0 mm 3 m/s 750 mmHg 90%
21:00 +15°C° 0 mm 2 m/s 751 mmHg 91%
22:00 +14°C° 0 mm 1 m/s 751 mmHg 92%
23:00 +14°C° 0 mm 1 m/s 751 mmHg 93%

29 Outubro, Quinta-feira

Tempo Temperatura Precipitação Vento Pressão Humidade
00:00 +14°C° 0 mm 1 m/s 751 mmHg 91%
01:00 +13°C° 0 mm 0 m/s 751 mmHg 90%
02:00 +13°C° 0 mm 0 m/s 750 mmHg 89%
03:00 +13°C° 0 mm 0 m/s 750 mmHg 89%
04:00 +13°C° 0 mm 0 m/s 751 mmHg 90%
05:00 +12°C° 0 mm 0 m/s 751 mmHg 90%
06:00 +12°C° 0 mm 0 m/s 751 mmHg 89%
07:00 +14°C° 0 mm 1 m/s 751 mmHg 88%
08:00 +14°C° 0 mm 1 m/s 751 mmHg 86%
09:00 +15°C° 0 mm 1 m/s 751 mmHg 80%
10:00 +16°C° 0 mm 1 m/s 751 mmHg 75%
11:00 +18°C° 0 mm 1 m/s 751 mmHg 69%
12:00 +19°C° 0 mm 1 m/s 751 mmHg 66%
13:00 +19°C° 0 mm 1 m/s 751 mmHg 63%
14:00 +18°C° 0 mm 0 m/s 751 mmHg 60%
15:00 +19°C° 0 mm 1 m/s 751 mmHg 63%
16:00 +18°C° 0 mm 1 m/s 751 mmHg 66%
17:00 +18°C° 0 mm 1 m/s 751 mmHg 69%
18:00 +16°C° 0 mm 1 m/s 752 mmHg 71%
19:00 +14°C° 0 mm 0 m/s 752 mmHg 74%
20:00 +14°C° 0 mm 0 m/s 752 mmHg 76%
21:00 +14°C° 0 mm 0 m/s 753 mmHg 78%
22:00 +14°C° 0 mm 1 m/s 753 mmHg 79%
23:00 +14°C° 0 mm 1 m/s 753 mmHg 81%
Mostrar mais